Weather History for Guadalupe Pass, TX

Change the Weather History Date:

Friday, September 7, 2012

  Actual Average Record
Temperature  
Mean Temperature 82 °F -  
Max Temperature 96 °F 81 °F 96 °F (2012)
Min Temperature 68 °F 60 °F 55 °F (2004)
Cooling Degree Days 17    
Growing Degree Days 32 (Base 50)    
Moisture  
Dew Point 52 °F    
Average Humidity 41    
Maximum Humidity 61    
Minimum Humidity 19    
Precipitation  
Precipitation 0.00 in - - ()
Sea Level Pressure  
Sea Level Pressure 29.91 in    
Wind  
Wind Speed 14 mph (WSW)    
Max Wind Speed 33 mph    
Max Gust Speed 33 mph    
Visibility 10 miles    
Events      
Averages and records for this station are not official NWS values.
T = Trace of Precipitation, MM = Missing Value Source: NWS Daily Summary

Daily Weather History Graph

Daily Weather History Graph

Search for Another Location

Airport:

Trip Planner

Search our weather history database for the weather conditions in past years. The results will help you decide how hot, cold, wet, or windy it might be!

Date:

Astronomy

Sep. 07, 2012 Rise Set
Actual Time 6:38 AM MDT 7:14 PM MDT
Civil Twilight 6:14 AM MDT 7:39 PM MDT
Nautical Twilight 5:45 AM MDT 8:08 PM MDT
Astronomical Twilight 5:15 AM MDT 8:37 PM MDT
Moon 11:38 PM MDT (9/7) 1:06 PM MDT (9/7)
Length of Visible Light 13h 25m
Length of Day
12h 36m
Waning Gibbous, 58% of the Moon is Illuminated
Sep 7
Waning Gibbous
Sep 8
Last Quarter
Sep 15
New
Sep 22
First Quarter
Sep 29
Full

Hourly Weather History & Observations

Time (MDT) Temp. Heat Index Dew Point Humidity Pressure Visibility Wind Dir Wind Speed Gust Speed Precip Events Conditions
12:51 AM 77.0 °F - 50.0 °F 39% 29.88 in 10.0 mi WSW 8.1 mph - N/A   Partly Cloudy
1:51 AM 75.0 °F - 51.1 °F 43% 29.87 in 10.0 mi WSW 11.5 mph - N/A   Clear
2:51 AM 71.1 °F - 53.1 °F 53% 29.88 in 10.0 mi WSW 18.4 mph - N/A   Clear
3:51 AM 71.1 °F - 51.1 °F 49% 29.86 in 10.0 mi WSW 12.7 mph - N/A   Clear
4:51 AM 71.1 °F - 52.0 °F 51% 29.87 in 10.0 mi WSW 12.7 mph - N/A   Clear
5:51 AM 69.1 °F - 53.1 °F 57% 29.90 in 10.0 mi SW 11.5 mph - N/A   Clear
6:51 AM 68.0 °F - 54.0 °F 61% 29.92 in 9.0 mi SW 10.4 mph - N/A   Clear
7:51 AM 69.1 °F - 55.0 °F 61% 29.93 in 9.0 mi SW 12.7 mph - N/A   Clear
8:51 AM 72.0 °F - 55.9 °F 57% 29.94 in 9.0 mi WSW 12.7 mph - N/A   Clear
9:51 AM 77.0 °F - 57.0 °F 50% 29.93 in 9.0 mi SW 10.4 mph - N/A   Clear
10:51 AM 82.9 °F 82.4 °F 57.0 °F 41% 29.90 in 10.0 mi SW 16.1 mph 20.7 mph N/A   Clear
11:51 AM 91.0 °F 88.5 °F 53.1 °F 27% 29.88 in 10.0 mi WSW 15.0 mph 23.0 mph N/A   Clear
12:51 PM 93.0 °F - 50.0 °F 23% 29.86 in 10.0 mi WSW 17.3 mph - N/A   Clear
1:51 PM 91.9 °F - 48.9 °F 23% 29.84 in 10.0 mi SW 13.8 mph 26.5 mph N/A   Clear
2:51 PM 96.1 °F - 46.9 °F 19% 29.81 in 10.0 mi WSW 16.1 mph 23.0 mph N/A   Clear
3:51 PM 91.9 °F - 48.0 °F 22% 29.81 in 10.0 mi SW 6.9 mph 17.3 mph N/A   Clear
4:34 PM 86.0 °F - 48.0 °F 27% 30.10 in 10.0 mi ENE 17.3 mph - N/A   Overcast
4:51 PM 86.0 °F - 48.0 °F 27% 29.83 in 10.0 mi ENE 17.3 mph - N/A   Scattered Clouds
5:51 PM 84.0 °F - 48.0 °F 28% 29.85 in 10.0 mi WSW 12.7 mph - N/A   Scattered Clouds
6:31 PM 81.0 °F - 51.1 °F 35% 30.13 in 10.0 mi WNW 10.4 mph - N/A   Partly Cloudy
6:51 PM 81.0 °F - 51.1 °F 35% 29.87 in 10.0 mi WNW 6.9 mph - N/A   Partly Cloudy
7:51 PM 81.0 °F - 48.9 °F 33% 29.88 in 10.0 mi North 20.7 mph 33.4 mph N/A   Overcast
8:05 PM 79.0 °F - 50.0 °F 36% 30.15 in 10.0 mi North 16.1 mph 21.9 mph N/A   Scattered Clouds
8:51 PM 78.1 °F - 50.0 °F 37% 29.91 in 10.0 mi North 20.7 mph 27.6 mph N/A   Clear
9:51 PM 73.9 °F - 53.1 °F 48% 29.94 in 9.0 mi ENE 31.1 mph - N/A   Mostly Cloudy
10:51 PM 70.0 °F - 55.9 °F 61% 29.96 in 9.0 mi NE 29.9 mph - 0.00 in   Overcast
11:51 PM 68.0 °F - 53.1 °F 59% 29.94 in 9.0 mi NE 33.4 mph - N/A   Overcast